Home > Weather > Casablanca > Past weeks

Flag for Morocco Weather for the Past 2 Weeks in Casablanca, Morocco

Now
57 °F

Passing clouds.


Feels Like: 57 °F
Forecast: 62 / 65 °F
Wind: 1 mph from Northwest

Location: Nouasseur

Current Time: Feb 13, 2016 at 12:39:07 AM

Latest Report: Feb 13, 2016 at 12:00 AM


Visibility: N/A

Pressure: 30.27 "Hg

Humidity: 94%

Dew point: 55 °F

Location of CasablancaLocation

Historic Weather in Casablanca — Graph

°F

Casablanca Temperature Yesterday

Maximum temperature yesterday: 73 °F (at 3:30 PM)
Minimum temperature yesterday: 55 °F (at 11:00 PM)
Average temperature yesterday: 62 °F

High & Low Weather Summary for the Past Weeks

 TemperatureHumidityPressure
High79 °F (Feb 6, 2:30 PM)100% (Feb 1, 4:30 AM)30.69 "Hg (Feb 1, 4:30 AM)
Low39 °F (Feb 1, 7:00 AM)26% (Feb 6, 2:30 PM)30.18 "Hg (Feb 4, 4:00 PM)
Average57 °F78%30.36 "Hg
* Reported Jan 28 11:30 PM — Feb 12 11:00 PM, Casablanca, Weather by CustomWeather, © 2016

Note: Actual official high and low records may vary slightly from our data, if they occured in-between our weather recording intervals... More about our weather records

Advertising

Casablanca Weather History for the Previous 24 Hours

 ConditionsComfort  
Time TempWeatherWind HumidityBarometerVisibility
11:00 PM
Fri, Feb 12
55 °FPassing clouds.5 mph94%30.27 "HgN/A
10:00 PM57 °FPassing clouds.2 mph94%30.30 "HgN/A
9:30 PM59 °FPassing clouds.2 mph88%30.30 "HgN/A
9:00 PM59 °FPassing clouds.1 mph94%30.30 "HgN/A
8:30 PM59 °FPassing clouds.2 mph88%30.30 "HgN/A
8:00 PM59 °FPassing clouds.3 mph88%30.27 "HgN/A
7:30 PM61 °FPassing clouds.6 mph88%30.27 "HgN/A
7:00 PM61 °FPassing clouds.9 mph83%30.24 "HgN/A
6:30 PM63 °FPassing clouds.9 mph77%30.24 "HgN/A
6:00 PM63 °FPassing clouds.12 mph77%30.24 "HgN/A
5:30 PM64 °FPassing clouds.16 mph73%30.24 "HgN/A
5:00 PM68 °FScattered clouds.15 mph64%30.24 "HgN/A
4:30 PM72 °FScattered clouds.6 mph57%30.24 "HgN/A
4:00 PM72 °FScattered clouds.6 mph57%30.21 "HgN/A
3:30 PM73 °FScattered clouds.3 mph53%30.21 "HgN/A
3:00 PM72 °FScattered clouds.3 mph53%30.21 "HgN/A
2:30 PM72 °FScattered clouds.2 mph57%30.24 "HgN/A
2:00 PM70 °FScattered clouds.3 mph60%30.24 "HgN/A
1:30 PM70 °FPartly sunny.3 mph64%30.27 "HgN/A
1:00 PM66 °FPartly sunny.5 mph68%30.27 "HgN/A
12:30 PM68 °FPartly sunny.5 mph64%30.30 "HgN/A
12:00 PM66 °FBroken clouds.5 mph73%30.30 "HgN/A
11:30 AM66 °FBroken clouds.5 mph68%30.30 "HgN/A
11:00 AM66 °FPartly sunny.3 mph68%30.30 "HgN/A
10:30 AM64 °FPartly sunny.3 mph78%30.30 "HgN/A
10:00 AM63 °FPartly sunny.5 mph83%30.30 "HgN/A
9:30 AM61 °FPartly sunny.7 mph88%30.30 "HgN/A
9:00 AM61 °FPartly sunny.3 mph88%30.33 "HgN/A
8:30 AM61 °FPartly sunny.2 mph88%30.30 "HgN/A
8:00 AM59 °FPartly sunny.2 mph94%30.30 "HgN/A
7:30 AM59 °FPartly sunny.3 mph94%30.30 "HgN/A
7:00 AM59 °FPartly sunny.3 mph94%30.27 "HgN/A
6:30 AM59 °FPartly sunny.No wind94%30.27 "HgN/A
6:00 AM59 °FPassing clouds.No wind94%30.24 "HgN/A
5:30 AM59 °FPassing clouds.No wind94%30.24 "HgN/A
5:00 AM59 °FPassing clouds.3 mph94%30.24 "HgN/A
4:30 AM59 °FPassing clouds.2 mph94%30.24 "HgN/A
4:00 AM59 °FPassing clouds.2 mph94%30.24 "HgN/A
3:30 AM59 °FPassing clouds.3 mph94%30.27 "HgN/A
3:00 AM59 °FPassing clouds.No wind94%30.27 "HgN/A
2:30 AM59 °FPassing clouds.No wind94%30.27 "HgN/A
2:00 AM59 °FPassing clouds.No wind88%30.27 "HgN/A
1:30 AM57 °FPassing clouds.No wind94%30.27 "HgN/A
1:00 AM57 °FPassing clouds.No wind94%30.27 "HgN/A
12:30 AM59 °FPassing clouds.3 mph88%30.27 "HgN/A
12:00 AM59 °FPassing clouds.5 mph94%30.27 "HgN/A
Weather by CustomWeather, © 2016

See weather overviewHow to use our weather pages